SCP
0 0 0 0 0 0 0 0 0 0 0 0 0 0 0 0 0 0 0 0 0 0 0 0 0 0 0 0 0 0 0 0 0 0 0 0 0 0
0 0 0 0 0 0 0 0 0 0 0 0 0 0 0 0 0 0 0 0 0 0 0 0 0 0 0 0 0 0 0 0 0 0 0 0 0 0
0 0 0 0 0 0 0 0 0 0 0 0 0 0 0 0 0 0 0 0 0 0 0 0 0 0 0 0 0 0 0 0 0 0 0 0 0 0
0 0 0 0 0 0 0 0 0 0 0 0 0 0 0 0 0 0 0 0 0 0 0 0 0 0 0 0 0 0 0 0 0 0 0 0 0 0
0 0 0 0 0 0 0 0 0 0 0 0 0 0 0 0 0 0 0 0 0 0 0 0 0 0 0 0 0 0 0 0 0 0 0 0 0 0
0 0 0 0 0 0 0 0 0 0 0 0 0 0 0 0 0 0 0 0 0 0 0 0 0 0 0 0 0 0 0 0 0 0 0 0 0 0
0 0 0 0 0 0 0 0 0 0 0 0 0 0 0 0 0 0 0 0 0 0 0 0 0 0 0 0 0 0 0 0 0 0 0 0 0 0
0 0 0 0 0 0 0 0 0 0 0 0 0 0 0 0 0 0 0 0 0 0 0 0 0 0 0 0 0 0 0 0 0 0 0 0 0 0
0 0 0 0 0 0 0 0 0 0 0 0 0 0 0 0 0 0 0 0 0 0 0 0 0 0 0 0 0 0 0 0 0 0 0 0 0 0
0 0 0 0 0 0 0 0 0 0 0 0 0 0 0 0 0 0 0 0 0 0 0 0 0 0 0 0 0 0 0 0 0 0 0 0 0 0
0 0 0 0 0 0 0 0 0 0 0 0 0 0 0 0 0 0 0 0 0 0 0 0 0 0 0 0 0 0 0 0 0 0 0 0 0 0
0 0 0 0 0 0 0 0 0 0 0 0 0 0 0 0 0 0 0 0 0 0 0 0 0 0 0 0 0 0 0 0 0 0 0 0 0 0
0 0 0 0 0 0 0 0 0 0 0 0 0 0 0 0 0 0 0 0 0 0 0 0 0 0 0 0 0 0 0 0 0 0 0 0 0 0
0 0 0 0 0 0 0 0 0 0 0 0 0 0 0 0 0 0 0 0 0 0 0 0 0 0 0 0 0 0 0 0 0 0 0 0 0 0
0 0 0 0 0 0 0 0 0 0 0 0 0 0 0 0 0 0 0 0 0 0 0 0 0 0 0 0 0 0 0 0 0 0 0 0 0 0
0 0 0 0 0 0 0 0 0 0 0 0 0 0 0 0 0 0 0 0 0 0 0 0 0 0 0 0 0 0 0 0 0 0 0 0 0 0
0 0 0 0 0 0 0 0 0 0 0 0 0 0 0 0 0 0 0 0 0 0 0 0 0 0 0 0 0 0 0 0 0 0 0 0 0 0
0 0 0 0 0 0 0 0 0 0 0 0 0 0 0 0 0 0 0 0 0 0 0 0 0 0 0 0 0 0 0 0 0 0 0 0 0 0
0 0 0 0 0 0 0 0 0 0 0 0 0 0 0 0 0 0 0 0 0 0 0 0 0 0 0 0 0 0 0 0 0 0 0 0 0 0
0 0 0 0 0 0 0 0 0 0 0 0 0 0 0 0 0 0 0 0 0 0 0 0 0 0 0 0 0 0 0 0 0 0 0 0 0 0
0 0 0 0 0 0 0 0 0 0 0 0 0 0 0 0 0 0 0 0 0 0 0 0 0 0 0 0 0 0 0 0 0 0 0 0 0 0
0 0 0 0 0 0 0 0 0 0 0 0 0 0 0 0 0 0 0 0 0 0 0 0 0 0 0 0 0 0 0 0 0 0 0 0 0 0
0 0 0 0 0 0 0 0 0 0 0 0 0 0 0 0 0 0 0 0 0 0 0 0 0 0 0 0 0 0 0 0 0 0 0 0 0 0
Wind_Speed_500mb
57 54 56 56 54 52 49 46 44 37 42 39 31 24 20 18 14 12 9 9 13 19 24 28 32 36 41 46 52 56 60 59 61 63 65 68 72 77
60 57 56 58 56 54 51 48 46 44 34 37 31 26 24 21 19 15 10 10 12 18 23 27 31 36 40 45 51 56 60 62 59 62 65 68 73 76
69 61 57 58 58 56 53 50 47 45 41 35 31 30 27 24 22 17 14 12 12 16 21 26 32 35 38 43 50 56 57 63 63 63 66 68 71 73
80 61 61 63 61 57 52 49 46 43 40 36 30 33 29 28 25 21 17 16 14 17 18 25 29 32 35 42 48 53 56 62 67 66 62 69 73 74
72 64 62 63 60 58 54 50 45 43 40 37 35 34 30 30 28 24 20 19 16 16 16 23 27 31 33 40 47 49 54 60 65 68 67 68 71 76
74 72 65 62 61 58 55 51 47 45 43 40 41 36 29 32 33 27 24 23 21 19 17 23 24 28 33 39 43 45 52 57 62 65 65 67 70 76
73 68 67 60 57 54 49 48 47 47 45 43 41 38 28 37 35 30 27 29 24 23 18 22 22 27 34 38 41 44 49 52 59 62 61 63 67 73
72 65 68 58 64 60 54 50 47 45 45 43 37 32 37 41 38 32 30 30 27 24 24 23 23 26 32 34 36 43 47 51 56 57 58 58 62 69
67 70 53 57 56 57 56 51 51 48 46 40 35 28 44 44 38 34 33 34 31 32 32 27 21 21 30 31 26 40 44 48 53 55 56 55 58 64
66 51 56 56 57 58 58 52 51 49 46 37 30 32 46 44 42 39 38 38 37 33 34 34 26 21 26 24 17 39 43 48 52 53 54 54 54 58
53 57 59 56 56 56 58 54 52 50 46 38 27 36 48 48 49 47 41 40 41 39 35 37 27 31 24 16 20 36 38 45 48 48 49 52 54 54
49 52 50 55 54 57 58 55 55 51 47 40 34 40 44 54 51 54 40 45 42 41 29 27 33 31 19 14 34 38 31 39 42 42 45 46 51 55
50 52 55 55 56 60 60 55 49 46 45 41 43 41 56 66 54 52 47 48 47 47 43 40 40 37 29 30 25 30 41 39 37 34 40 41 44 49
45 47 51 53 52 53 58 51 49 50 46 44 54 53 61 66 51 48 49 52 50 50 45 42 45 38 37 40 35 29 31 37 35 32 36 35 35 38
40 44 48 52 53 54 55 54 56 56 50 54 53 63 59 59 50 49 53 52 49 49 46 44 43 41 39 39 40 38 39 33 21 32 32 34 35 38
42 45 51 58 62 61 58 58 60 58 57 55 64 61 54 56 52 48 53 53 53 52 50 46 44 43 41 40 41 35 34 27 29 26 28 29 30 32
44 51 60 63 63 64 65 65 64 60 64 68 69 63 52 61 54 50 57 56 60 57 48 47 45 45 45 43 40 34 31 28 27 22 22 23 26 26
56 59 60 61 62 62 67 68 63 76 80 69 73 65 62 62 57 57 63 61 62 61 55 48 48 50 50 45 40 32 29 24 24 22 21 20 21 22
57 61 63 65 61 63 67 74 81 84 68 68 68 67 64 66 61 68 64 61 63 64 57 54 52 52 52 53 38 34 31 26 24 23 21 20 21 20
59 62 65 69 68 66 69 73 86 73 66 65 69 71 71 68 66 69 65 56 59 63 60 58 59 56 54 48 41 36 30 28 27 25 23 22 19 19
51 60 65 67 69 66 70 73 65 65 65 62 62 64 67 65 65 66 64 65 63 62 65 65 57 46 49 52 51 40 33 32 28 28 25 22 19 18
48 55 62 68 71 71 75 75 72 68 63 61 60 58 59 60 62 63 63 63 68 66 65 61 57 57 58 57 49 41 39 37 33 31 27 25 20 12
42 48 52 54 56 58 61 64 63 61 60 60 60 62 62 63 63 64 64 64 66 66 66 66 63 63 60 56 50 44 41 39 36 32 29 27 26 23
Wind_Direction_500mb
267 270 262 250 247 245 245 244 243 238 239 240 237 239 239 241 247 263 288 332 343 349 352 353 351 349 351 351 351 349 346 350 348 347 347 346 345 344
255 266 261 249 246 245 245 245 244 243 242 235 232 234 236 239 246 254 281 308 326 338 340 343 343 344 345 348 349 347 346 348 349 349 348 348 346 346
251 257 254 244 243 244 244 245 244 240 239 237 234 233 235 239 241 250 266 280 309 327 327 330 338 337 340 344 346 345 347 346 349 349 350 349 347 345
246 252 250 241 239 240 243 244 242 239 237 238 234 230 229 237 240 246 258 275 298 317 314 320 328 329 336 339 344 347 345 346 348 351 349 350 350 349
244 254 247 239 241 243 240 239 238 237 235 233 228 226 225 239 243 245 252 265 283 301 304 311 318 325 331 337 343 345 344 347 348 349 351 352 351 351
243 258 240 243 244 242 242 238 232 231 231 227 225 226 229 244 245 247 253 262 274 286 285 302 318 320 327 336 342 344 345 347 347 348 352 353 352 353
243 240 236 241 247 244 241 242 234 232 230 226 225 227 247 244 244 245 250 255 266 275 279 304 311 315 326 335 338 345 346 346 346 346 352 354 353 354
241 238 232 235 240 240 240 235 235 236 236 232 231 236 266 245 242 247 252 261 275 275 283 299 310 308 319 332 339 348 346 345 345 346 350 354 355 356
243 239 235 238 246 242 242 235 234 235 234 231 234 267 262 250 250 252 258 264 271 279 291 300 298 309 321 335 333 347 347 343 343 345 346 354 358 358
244 235 236 236 243 246 241 239 236 236 233 229 249 275 258 255 255 257 260 269 273 279 289 298 298 314 324 329 321 345 346 343 342 342 345 350 359 1
236 235 237 238 240 239 240 238 238 236 233 238 257 268 264 258 257 257 260 269 274 280 287 294 296 315 325 327 329 342 342 341 339 340 343 346 353 1
241 243 243 244 242 243 243 241 239 239 239 242 262 257 268 274 264 262 262 266 271 280 283 281 297 312 317 310 329 336 333 337 337 335 341 345 349 357
233 240 244 246 251 249 248 245 247 243 245 246 261 260 269 270 264 262 266 265 266 266 272 281 288 298 299 300 313 326 334 335 334 331 338 344 350 357
250 250 253 255 253 253 253 250 243 239 242 255 257 272 271 269 264 264 265 265 264 266 263 272 278 288 293 302 311 318 326 326 328 328 334 341 346 356
263 262 259 261 258 254 250 248 244 241 243 254 276 278 268 271 267 266 264 262 260 259 263 267 273 277 282 289 297 314 319 326 318 326 329 334 345 351
262 268 270 261 252 253 252 249 247 243 254 273 274 272 269 265 266 270 266 266 262 258 262 266 267 271 276 281 288 302 306 312 314 319 324 330 337 345
265 268 263 260 256 252 251 250 246 247 261 265 268 266 267 269 266 270 268 264 262 264 262 263 265 264 268 272 280 293 295 299 303 307 310 320 327 338
262 263 261 259 258 257 256 254 246 263 260 267 269 262 264 262 261 268 266 263 261 263 262 258 258 261 266 267 275 282 283 285 288 294 303 310 318 326
256 262 263 265 267 266 264 259 259 260 270 274 270 266 263 258 262 266 261 259 265 261 258 256 254 255 259 266 274 275 276 270 275 285 289 297 305 310
253 259 263 268 271 269 263 260 269 271 280 286 279 268 260 261 266 262 256 254 261 261 254 251 252 254 257 266 265 270 271 268 272 271 273 282 289 297
275 276 274 273 274 273 271 276 276 280 286 283 279 271 268 265 264 260 253 254 256 254 251 250 257 253 248 251 256 262 262 263 263 263 267 270 278 284
280 280 282 284 285 280 279 283 286 286 285 283 280 277 275 271 267 265 263 261 261 258 257 255 250 241 241 248 254 252 251 252 252 255 259 266 268 264
300 299 297 295 295 295 294 291 291 291 290 287 281 281 280 280 276 272 269 267 265 260 255 252 247 243 243 245 248 243 246 247 248 249 254 255 260 262
Wind_Speed_850mb
57 54 56 56 54 52 49 46 44 37 42 39 31 24 20 18 14 12 9 9 13 19 24 28 32 36 41 46 52 56 60 59 61 63 65 68 72 77
60 57 56 58 56 54 51 48 46 44 34 37 31 26 24 21 19 15 10 10 12 18 23 27 31 36 40 45 51 56 60 62 59 62 65 68 73 76
69 61 57 58 58 56 53 50 47 45 41 35 31 30 27 24 22 17 14 12 12 16 21 26 32 35 38 43 50 56 57 63 63 63 66 68 71 73
80 61 61 63 61 57 52 49 46 43 40 36 30 33 29 28 25 21 17 16 14 17 18 25 29 32 35 42 48 53 56 62 67 66 62 69 73 74
72 64 62 63 60 58 54 50 45 43 40 37 35 34 30 30 28 24 20 19 16 16 16 23 27 31 33 40 47 49 54 60 65 68 67 68 71 76
74 72 65 62 61 58 55 51 47 45 43 40 41 36 29 32 33 27 24 23 21 19 17 23 24 28 33 39 43 45 52 57 62 65 65 67 70 76
73 68 67 60 57 54 49 48 47 47 45 43 41 38 28 37 35 30 27 29 24 23 18 22 22 27 34 38 41 44 49 52 59 62 61 63 67 73
72 65 68 58 64 60 54 50 47 45 45 43 37 32 37 41 38 32 30 30 27 24 24 23 23 26 32 34 36 43 47 51 56 57 58 58 62 69
67 70 53 57 56 57 56 51 51 48 46 40 35 28 44 44 38 34 33 34 31 32 32 27 21 21 30 31 26 40 44 48 53 55 56 55 58 64
66 51 56 56 57 58 58 52 51 49 46 37 30 32 46 44 42 39 38 38 37 33 34 34 26 21 26 24 17 39 43 48 52 53 54 54 54 58
53 57 59 56 56 56 58 54 52 50 46 38 27 36 48 48 49 47 41 40 41 39 35 37 27 31 24 16 20 36 38 45 48 48 49 52 54 54
49 52 50 55 54 57 58 55 55 51 47 40 34 40 44 54 51 54 40 45 42 41 29 27 33 31 19 14 34 38 31 39 42 42 45 46 51 55
50 52 55 55 56 60 60 55 49 46 45 41 43 41 56 66 54 52 47 48 47 47 43 40 40 37 29 30 25 30 41 39 37 34 40 41 44 49
45 47 51 53 52 53 58 51 49 50 46 44 54 53 61 66 51 48 49 52 50 50 45 42 45 38 37 40 35 29 31 37 35 32 36 35 35 38
40 44 48 52 53 54 55 54 56 56 50 54 53 63 59 59 50 49 53 52 49 49 46 44 43 41 39 39 40 38 39 33 21 32 32 34 35 38
42 45 51 58 62 61 58 58 60 58 57 55 64 61 54 56 52 48 53 53 53 52 50 46 44 43 41 40 41 35 34 27 29 26 28 29 30 32
44 51 60 63 63 64 65 65 64 60 64 68 69 63 52 61 54 50 57 56 60 57 48 47 45 45 45 43 40 34 31 28 27 22 22 23 26 26
56 59 60 61 62 62 67 68 63 76 80 69 73 65 62 62 57 57 63 61 62 61 55 48 48 50 50 45 40 32 29 24 24 22 21 20 21 22
57 61 63 65 61 63 67 74 81 84 68 68 68 67 64 66 61 68 64 61 63 64 57 54 52 52 52 53 38 34 31 26 24 23 21 20 21 20
59 62 65 69 68 66 69 73 86 73 66 65 69 71 71 68 66 69 65 56 59 63 60 58 59 56 54 48 41 36 30 28 27 25 23 22 19 19
51 60 65 67 69 66 70 73 65 65 65 62 62 64 67 65 65 66 64 65 63 62 65 65 57 46 49 52 51 40 33 32 28 28 25 22 19 18
48 55 62 68 71 71 75 75 72 68 63 61 60 58 59 60 62 63 63 63 68 66 65 61 57 57 58 57 49 41 39 37 33 31 27 25 20 12
42 48 52 54 56 58 61 64 63 61 60 60 60 62 62 63 63 64 64 64 66 66 66 66 63 63 60 56 50 44 41 39 36 32 29 27 26 23
Wind_Direction_850mb
267 270 262 250 247 245 245 244 243 238 239 240 237 239 239 241 247 263 288 332 343 349 352 353 351 349 351 351 351 349 346 350 348 347 347 346 345 344
255 266 261 249 246 245 245 245 244 243 242 235 232 234 236 239 246 254 281 308 326 338 340 343 343 344 345 348 349 347 346 348 349 349 348 348 346 346
251 257 254 244 243 244 244 245 244 240 239 237 234 233 235 239 241 250 266 280 309 327 327 330 338 337 340 344 346 345 347 346 349 349 350 349 347 345
246 252 250 241 239 240 243 244 242 239 237 238 234 230 229 237 240 246 258 275 298 317 314 320 328 329 336 339 344 347 345 346 348 351 349 350 350 349
244 254 247 239 241 243 240 239 238 237 235 233 228 226 225 239 243 245 252 265 283 301 304 311 318 325 331 337 343 345 344 347 348 349 351 352 351 351
243 258 240 243 244 242 242 238 232 231 231 227 225 226 229 244 245 247 253 262 274 286 285 302 318 320 327 336 342 344 345 347 347 348 352 353 352 353
243 240 236 241 247 244 241 242 234 232 230 226 225 227 247 244 244 245 250 255 266 275 279 304 311 315 326 335 338 345 346 346 346 346 352 354 353 354
241 238 232 235 240 240 240 235 235 236 236 232 231 236 266 245 242 247 252 261 275 275 283 299 310 308 319 332 339 348 346 345 345 346 350 354 355 356
243 239 235 238 246 242 242 235 234 235 234 231 234 267 262 250 250 252 258 264 271 279 291 300 298 309 321 335 333 347 347 343 343 345 346 354 358 358
244 235 236 236 243 246 241 239 236 236 233 229 249 275 258 255 255 257 260 269 273 279 289 298 298 314 324 329 321 345 346 343 342 342 345 350 359 1
236 235 237 238 240 239 240 238 238 236 233 238 257 268 264 258 257 257 260 269 274 280 287 294 296 315 325 327 329 342 342 341 339 340 343 346 353 1
241 243 243 244 242 243 243 241 239 239 239 242 262 257 268 274 264 262 262 266 271 280 283 281 297 312 317 310 329 336 333 337 337 335 341 345 349 357
233 240 244 246 251 249 248 245 247 243 245 246 261 260 269 270 264 262 266 265 266 266 272 281 288 298 299 300 313 326 334 335 334 331 338 344 350 357
250 250 253 255 253 253 253 250 243 239 242 255 257 272 271 269 264 264 265 265 264 266 263 272 278 288 293 302 311 318 326 326 328 328 334 341 346 356
263 262 259 261 258 254 250 248 244 241 243 254 276 278 268 271 267 266 264 262 260 259 263 267 273 277 282 289 297 314 319 326 318 326 329 334 345 351
262 268 270 261 252 253 252 249 247 243 254 273 274 272 269 265 266 270 266 266 262 258 262 266 267 271 276 281 288 302 306 312 314 319 324 330 337 345
265 268 263 260 256 252 251 250 246 247 261 265 268 266 267 269 266 270 268 264 262 264 262 263 265 264 268 272 280 293 295 299 303 307 310 320 327 338
262 263 261 259 258 257 256 254 246 263 260 267 269 262 264 262 261 268 266 263 261 263 262 258 258 261 266 267 275 282 283 285 288 294 303 310 318 326
256 262 263 265 267 266 264 259 259 260 270 274 270 266 263 258 262 266 261 259 265 261 258 256 254 255 259 266 274 275 276 270 275 285 289 297 305 310
253 259 263 268 271 269 263 260 269 271 280 286 279 268 260 261 266 262 256 254 261 261 254 251 252 254 257 266 265 270 271 268 272 271 273 282 289 297
275 276 274 273 274 273 271 276 276 280 286 283 279 271 268 265 264 260 253 254 256 254 251 250 257 253 248 251 256 262 262 263 263 263 267 270 278 284
280 280 282 284 285 280 279 283 286 286 285 283 280 277 275 271 267 265 263 261 261 258 257 255 250 241 241 248 254 252 251 252 252 255 259 266 268 264
300 299 297 295 295 295 294 291 291 291 290 287 281 281 280 280 276 272 269 267 265 260 255 252 247 243 243 245 248 243 246 247 248 249 254 255 260 262